Dewpoint
65 64 66 67 68 69 70 68 69 70 73 73 75 75 74 74 75 74 75 76 76 75 73 72 76 75 74 72 73 72 73 73 73 73 72 71 72 73 75 74 74 74 75 75 75 74 74 74 74 74 74 74 75 75 75 75 76 75 75 75 74 74 74 74 73 74 73 73 73 74 73 73 74 74 73 73 73 73 73 73 74 74 74 74 73
64 65 66 69 70 71 71 69 67 67 68 72 73 74 75 75 75 76 75 75 75 76 74 72 75 74 75 73 75 71 72 73 73 73 73 72 72 72 75 74 74 74 75 75 75 75 75 74 74 74 74 74 75 75 75 75 76 76 75 76 75 75 75 74 74 74 73 73 73 74 74 74 74 74 74 74 73 74 74 73 74 74 74 75 75
65 68 71 71 73 73 70 69 67 66 69 69 72 74 74 75 75 75 75 75 75 75 75 75 75 74 74 74 73 74 71 72 71 72 72 72 72 73 74 75 75 75 75 75 75 76 75 74 74 74 74 75 74 75 75 75 76 76 76 76 76 75 75 75 74 74 74 73 73 74 75 75 74 74 74 74 73 73 74 74 74 74 74 75 75
71 72 72 73 72 71 69 69 69 69 72 71 71 76 76 76 75 76 76 76 76 75 75 75 75 74 74 73 74 74 73 71 72 71 71 72 72 73 75 74 75 75 75 75 75 75 76 75 74 74 75 75 75 75 76 76 75 76 76 76 76 76 76 76 75 75 75 75 75 75 74 75 75 75 74 74 75 75 75 75 75 75 75 75 75
73 76 76 73 72 71 69 70 71 74 74 74 73 76 74 76 76 76 77 76 75 75 75 74 74 74 73 73 74 74 72 74 72 72 71 71 72 72 71 73 73 75 75 75 75 75 75 76 75 75 75 75 75 75 75 76 75 75 75 76 76 76 76 76 76 75 76 75 75 75 75 74 75 75 75 75 75 76 76 76 76 76 75 75 75
75 76 75 77 74 73 72 71 73 76 77 77 75 75 75 77 75 75 75 75 75 75 75 74 74 74 74 75 73 74 72 73 71 71 72 71 72 73 72 72 72 74 74 75 75 75 75 75 76 75 75 75 75 75 75 75 75 76 76 76 76 76 76 76 76 76 76 76 76 75 75 75 75 75 75 76 76 76 76 76 76 76 76 76 76
77 76 74 75 73 72 73 74 75 76 76 77 78 76 75 74 76 76 74 75 74 73 73 73 73 73 73 75 74 72 73 72 73 71 72 73 73 72 72 72 71 72 72 73 75 75 75 75 75 75 75 75 75 75 75 75 75 76 76 76 76 76 76 76 76 76 76 76 76 76 76 76 76 76 76 76 76 76 76 76 76 76 76 76 76
78 77 75 74 72 72 73 76 76 76 74 76 77 76 76 74 75 74 73 73 74 73 72 73 73 73 73 73 73 72 72 72 72 75 74 73 73 73 73 72 72 72 73 72 73 74 75 75 75 75 75 75 75 75 75 76 76 76 76 76 76 76 76 76 76 76 76 76 76 76 76 76 76 76 76 76 76 76 76 76 76 77 77 77 76
78 78 75 74 73 73 73 75 77 75 73 73 74 75 75 74 75 75 74 72 72 71 71 72 72 72 73 72 72 72 72 72 72 71 73 73 73 72 73 73 73 71 71 72 73 73 75 76 76 76 76 75 75 75 75 76 76 76 76 76 76 76 76 76 76 76 76 76 76 76 77 77 76 76 76 76 76 76 76 76 77 77 77 77 77
78 78 77 75 75 75 77 76 75 75 75 74 74 75 75 75 74 75 74 73 72 72 72 72 71 71 72 72 73 72 72 72 72 72 71 72 73 73 73 72 72 72 71 71 71 73 74 76 76 76 76 76 76 75 75 75 76 76 76 76 76 76 76 76 76 76 76 76 76 76 76 77 77 77 76 76 76 76 76 76 77 76 76 77 77
77 77 76 74 75 75 75 75 75 75 75 75 75 75 75 73 73 74 73 73 73 73 73 72 72 72 72 72 73 73 73 72 72 72 72 72 73 73 73 73 73 73 73 72 70 71 73 75 76 76 75 76 76 76 76 76 76 76 76 76 76 76 76 76 77 77 76 77 76 76 76 76 77 77 77 76 76 76 76 76 77 76 76 76 76
77 77 76 76 75 75 75 74 75 75 74 75 75 75 74 72 72 72 72 73 74 74 73 73 72 72 72 72 73 73 72 72 73 73 73 73 73 73 72 72 72 73 73 73 73 70 71 72 75 75 72 74 76 76 76 76 76 76 76 76 76 76 76 76 76 76 77 77 76 77 77 77 77 77 77 76 77 77 77 77 77 77 77 77 77
76 76 75 75 75 75 76 76 76 75 74 75 75 74 73 73 73 73 73 73 73 74 73 73 72 71 73 73 73 73 73 73 73 73 73 73 73 72 72 72 72 72 73 73 74 73 72 72 71 73 74 74 76 77 77 76 76 76 76 76 76 76 76 76 76 76 76 76 77 77 77 77 77 77 77 77 77 77 77 77 77 77 77 77 77
75 75 76 75 76 75 76 76 76 75 75 75 76 75 74 73 72 73 73 73 72 71 74 73 71 69 70 70 71 72 72 72 73 73 73 73 73 73 73 73 73 73 72 72 74 74 74 73 73 71 72 73 75 76 76 76 76 77 76 77 77 77 76 76 76 76 76 76 76 77 77 77 77 77 77 77 77 77 77 77 77 77 77 77 77
75 75 76 76 76 76 76 76 76 74 74 75 75 74 73 72 73 72 72 73 73 73 75 73 71 72 71 70 67 67 69 73 73 72 72 74 73 73 72 72 73 74 73 72 72 74 73 73 72 73 72 72 71 73 74 75 74 76 77 77 77 77 77 77 76 76 76 76 76 76 77 77 77 77 77 77 77 77 77 77 77 77 77 77 77
74 74 75 76 75 75 75 75 75 75 75 73 73 73 74 73 72 71 71 70 70 73 72 74 73 71 68 68 68 65 65 68 68 70 72 73 73 73 73 72 74 74 75 73 72 71 72 73 71 73 74 73 72 71 70 71 73 76 77 77 77 77 77 77 77 76 76 76 76 76 77 77 77 77 77 77 77 77 77 77 77 77 77 77 77
75 75 74 75 75 75 76 75 75 75 74 73 72 70 73 73 72 72 72 71 70 71 74 74 72 72 70 68 66 65 64 69 68 71 72 72 73 73 73 74 74 74 74 73 75 73 72 71 72 73 74 75 75 74 72 71 71 74 75 77 77 77 76 77 77 77 76 76 76 76 77 77 77 77 77 77 77 77 77 77 77 77 77 77 77
75 76 75 75 75 75 76 75 74 73 74 73 72 71 73 71 71 71 71 73 72 70 70 74 71 72 73 72 71 67 67 68 66 67 72 73 73 72 74 73 73 74 75 74 75 73 72 72 72 73 74 74 74 74 74 73 73 71 72 73 78 77 77 77 77 77 77 76 76 76 77 77 77 77 77 77 76 76 76 76 77 77 77 77 77
74 75 76 75 76 76 76 75 75 75 75 74 70 67 66 68 69 68 67 71 71 70 68 69 71 72 71 70 71 70 70 69 67 68 67 71 71 72 73 74 74 74 73 73 75 73 73 73 73 74 73 74 73 74 75 74 73 73 74 74 76 77 77 77 77 77 77 77 77 77 77 77 77 77 77 77 76 76 76 76 76 76 76 77 77
75 76 76 76 76 75 76 75 75 72 69 67 65 63 65 66 68 69 68 70 69 67 66 66 67 70 68 70 70 70 71 71 72 68 67 67 68 72 73 72 74 72 73 74 74 74 72 73 72 73 73 74 75 74 75 74 74 73 73 76 76 77 77 77 77 77 77 77 77 77 77 77 77 77 77 77 76 76 76 76 76 76 76 76 77
74 75 76 76 75 75 73 74 71 69 70 66 66 64 64 66 69 69 69 68 66 65 66 66 65 67 68 70 68 68 68 70 70 71 68 67 67 69 71 73 72 72 72 73 74 74 74 74 75 74 74 74 74 75 74 75 74 75 74 75 76 76 77 77 77 77 77 77 77 77 77 77 77 76 76 76 76 76 76 76 76 77 76 76 76
73 73 74 75 75 74 73 71 69 66 66 64 64 65 66 66 66 65 67 67 65 63 62 62 61 63 64 67 70 69 67 67 68 69 69 69 66 65 67 69 68 70 71 73 72 73 73 73 75 74 73 74 75 75 75 75 75 73 73 76 76 76 76 77 77 77 77 77 77 77 77 77 77 77 77 77 77 76 76 76 76 76 76 76 77
72 73 74 71 70 73 68 67 65 66 64 62 64 60 60 61 62 65 66 65 62 63 62 64 63 63 60 61 61 62 64 65 67 69 67 67 67 66 65 67 66 68 70 70 72 73 72 73 74 74 74 74 74 75 75 75 75 73 76 76 76 76 77 77 77 77 77 77 77 77 77 77 77 77 77 77 76 76 77 76 76 76 76 76 76
67 68 72 69 71 70 69 69 69 67 65 63 64 63 64 63 63 63 62 64 65 64 62 62 61 62 61 57 59 58 60 61 63 65 66 65 65 63 62 64 67 66 66 71 73 73 72 73 73 73 73 74 74 75 76 74 74 75 74 75 76 76 77 77 77 77 77 77 77 77 76 76 77 77 77 77 76 76 76 76 76 76 76 75 74
61 61 63 65 67 70 70 68 69 71 70 69 68 68 66 62 63 60 62 64 61 63 61 61 61 60 58 58 58 58 59 62 61 62 63 64 65 63 60 62 61 62 63 62 65 69 68 69 71 70 71 72 73 73 73 73 76 74 75 74 76 76 76 76 77 77 76 76 76 76 76 76 76 76 76 76 76 76 75 76 75 75 74 75 75
59 61 61 62 62 65 68 68 71 72 71 70 67 67 67 63 62 61 61 65 65 66 65 64 64 62 61 58 58 56 56 59 61 61 62 63 62 61 62 61 58 57 60 62 62 62 65 67 68 70 70 70 70 70 72 71 71 74 75 74 74 75 75 75 76 77 77 76 76 76 76 76 76 76 75 74 75 75 76 75 75 75 74 75 74
59 63 64 63 61 64 63 64 66 68 68 67 63 64 65 65 63 65 66 65 65 64 63 62 63 62 62 61 60 56 55 55 59 60 61 63 59 58 61 60 56 55 55 57 62 61 60 64 63 65 69 71 70 70 71 71 72 76 74 74 74 74 75 75 75 76 77 77 77 77 77 77 76 76 75 74 74 74 75 75 75 75 75 74 74
61 61 59 61 60 61 61 63 66 65 65 66 66 62 64 63 63 64 64 64 64 62 61 61 61 60 59 61 59 57 57 56 57 59 61 63 62 60 60 61 59 56 54 56 57 58 58 59 62 62 62 64 68 71 72 71 67 72 76 71 71 73 74 74 74 75 76 77 77 77 77 77 76 76 74 74 75 75 75 75 76 75 74 74 74
57 60 61 62 63 62 61 60 65 65 66 66 63 65 66 64 59 65 63 61 63 63 62 61 60 57 58 58 57 57 58 61 61 62 63 64 62 60 59 58 61 60 57 54 57 55 57 57 58 63 61 64 67 67 66 66 68 69 67 69 70 72 72 73 73 73 74 75 75 76 77 77 77 76 75 75 75 76 75 75 75 75 74 75 75
59 57 60 60 63 62 63 63 62 64 65 63 63 64 66 64 63 65 63 65 65 64 63 62 63 61 59 59 59 57 56 57 59 60 63 63 60 59 58 59 61 60 59 58 57 56 55 56 59 62 66 65 64 65 63 64 70 66 66 66 67 67 70 72 73 73 73 73 73 74 75 76 76 77 76 75 75 76 75 75 75 75 74 74 74
62 63 63 59 61 61 65 63 64 65 64 64 65 66 65 65 64 62 63 67 66 65 64 63 63 64 64 62 61 58 58 59 62 63 62 60 56 57 56 56 57 60 61 60 58 57 57 57 58 61 62 64 63 62 61 63 65 64 65 66 66 69 74 72 74 73 73 73 73 73 74 75 76 76 76 76 76 76 75 75 75 75 75 75 75
61 61 62 64 64 62 62 61 62 61 61 62 64 65 65 65 63 62 61 65 64 65 64 63 63 64 64 62 61 60 59 60 59 56 55 55 56 57 56 57 57 58 59 59 60 58 58 57 56 56 57 59 61 60 60 63 63 73 64 64 65 71 68 66 70 73 73 73 73 72 73 73 75 76 77 77 76 76 75 75 75 75 75 75 75
62 63 63 65 66 65 63 63 62 64 66 66 65 65 65 65 65 65 65 65 65 64 64 63 62 62 62 63 62 60 60 58 56 53 52 52 53 53 54 55 54 55 57 58 58 58 59 58 57 56 56 57 57 59 59 60 63 61 64 63 65 63 64 64 67 70 72 72 72 72 72 72 73 74 76 76 77 77 76 76 76 75 75 75 75
65 63 63 61 62 63 63 63 65 66 66 67 65 64 65 66 65 62 62 65 65 64 64 65 63 61 62 64 62 59 59 58 57 55 53 53 52 52 52 53 52 53 55 55 55 57 58 57 56 57 57 57 55 55 57 60 63 64 62 61 62 65 63 64 65 63 71 72 72 72 72 71 71 72 73 75 75 76 76 76 76 76 75 74 74
64 63 62 62 63 64 65 66 66 64 66 65 64 65 65 65 64 62 62 63 63 62 61 62 61 62 62 63 61 61 57 58 58 57 56 55 54 53 53 53 53 53 54 55 55 57 56 56 57 55 56 57 58 58 61 61 65 64 64 61 61 62 63 62 63 62 69 71 72 72 72 71 71 71 72 72 73 74 74 74 74 73 72 72 71
61 62 63 64 66 68 66 65 64 66 66 65 66 65 65 65 65 64 64 64 62 61 61 61 61 63 64 63 60 60 61 61 61 59 57 56 55 55 54 53 54 53 54 53 57 57 57 56 59 56 57 57 58 59 60 61 61 62 62 62 63 62 61 60 60 60 63 72 72 72 71 71 70 70 70 70 71 72 71 70 70 70 70 70 70
67 66 66 68 68 65 62 63 65 65 64 65 65 65 65 64 64 64 64 64 62 61 60 61 61 62 61 61 60 60 60 59 59 57 54 55 54 55 54 54 54 53 52 55 56 57 58 58 57 58 58 57 58 61 61 60 60 61 62 62 63 63 63 61 62 62 65 68 70 70 70 70 70 69 69 69 69 69 69 69 69 68 68 68 68
67 65 68 67 65 65 63 65 65 65 66 65 65 65 65 65 64 65 64 63 61 61 60 60 61 61 61 60 59 61 59 58 57 58 59 59 57 55 55 56 56 56 58 58 59 60 60 60 60 56 59 56 58 59 61 61 60 59 58 59 61 62 62 61 60 61 62 60 60 60 66 67 67 67 68 69 69 69 68 68 68 67 67 66 66
66 67 68 69 68 65 65 65 65 65 65 65 66 66 66 65 64 63 62 62 61 60 61 61 60 61 61 61 61 60 60 59 58 59 58 58 58 58 59 60 59 59 59 60 60 59 60 58 58 58 57 59 59 59 61 62 62 62 61 59 58 59 62 62 62 63 64 62 63 67 66 66 68 69 65 66 68 69 69 68 68 68 68 67 65
69 68 67 65 64 65 65 66 66 66 66 64 64 65 65 64 64 63 63 62 62 62 61 61 60 60 62 62 62 61 62 62 63 62 62 60 62 60 59 60 61 60 60 59 60 60 59 58 57 57 58 60 61 61 61 62 62 61 59 59 58 59 61 63 64 63 64 65 64 63 66 68 69 69 68 68 68 69 69 69 69 69 69 68 66
70 70 68 67 66 64 63 64 64 62 61 61 62 62 61 62 63 63 62 62 61 61 61 60 60 61 62 61 61 62 63 64 64 64 64 64 63 63 63 63 63 62 61 61 60 59 59 59 60 60 59 60 61 61 60 60 60 58 60 61 60 60 60 60 63 64 64 62 61 59 60 61 62 62 63 67 71 71 71 70 70 71 70 68 67
71 70 68 68 67 65 64 64 62 61 60 61 64 63 64 63 61 60 62 62 61 61 60 58 58 59 58 60 60 61 61 62 63 63 63 63 63 63 62 62 62 62 62 61 61 61 60 59 59 58 58 59 59 61 59 60 61 62 60 61 60 60 62 62 62 63 63 62 61 63 64 63 63 63 64 64 65 66 66 70 70 67 70 68 67
72 70 69 68 65 64 62 62 62 61 60 60 64 65 66 65 64 61 60 60 61 60 58 58 58 58 57 58 59 58 60 60 60 59 59 60 62 61 62 62 62 62 61 60 59 61 60 60 60 59 58 60 61 61 61 60 60 60 61 62 62 62 61 61 60 62 64 64 65 65 65 65 65 65 68 68 68 69 68 68 68 68 69 68 67
71 68 67 65 63 62 61 62 62 59 58 67 65 65 65 66 66 64 59 58 60 60 58 57 56 56 57 57 57 58 57 59 60 60 60 60 60 61 61 62 62 62 62 62 61 60 61 60 61 60 60 60 60 61 60 60 60 60 62 62 62 62 63 62 61 61 63 65 65 66 64 65 66 65 65 66 68 68 67 66 68 68 68 67 67
69 68 67 63 62 59 60 61 59 58 58 68 65 64 65 65 66 65 57 57 59 57 57 57 57 57 58 58 57 57 57 59 59 58 60 59 58 59 59 59 60 61 62 63 63 63 61 61 60 59 60 60 60 61 61 62 65 64 65 61 61 62 62 62 63 60 63 67 66 66 62 62 63 62 61 63 65 67 66 65 67 67 67 66 66
68 66 64 62 61 62 61 61 62 60 60 68 65 64 65 65 66 65 57 57 58 56 57 58 57 58 58 58 58 57 57 57 58 57 57 57 56 57 57 57 57 58 60 61 61 62 62 61 61 60 61 62 62 63 64 65 64 64 64 63 63 61 62 61 63 65 66 65 65 65 62 60 61 59 59 61 60 61 62 62 64 66 66 66 65
66 65 63 60 61 61 61 61 61 58 58 66 64 64 64 64 64 65 55 57 58 58 58 58 59 59 59 58 58 57 57 57 57 58 58 59 58 57 57 57 57 57 58 58 58 59 59 61 61 62 61 62 63 63 64 64 64 65 65 64 65 64 65 64 63 64 63 64 65 64 60 60 61 59 60 61 60 60 61 59 64 66 65 65 64
65 63 62 62 61 62 62 61 61 60 59 63 63 63 63 63 63 57 56 56 56 56 57 58 58 58 58 58 58 58 57 57 58 60 59 59 59 59 58 57 56 56 57 58 59 60 60 59 59 60 60 60 61 62 62 60 61 63 64 65 64 64 63 60 58 58 58 59 60 61 60 59 61 58 59 59 59 60 61 61 63 65 64 64 64
64 61 62 61 62 63 63 63 61 61 57 62 61 62 62 61 62 56 56 55 56 56 56 56 57 57 57 58 58 58 57 58 58 59 62 62 60 58 57 56 56 56 56 57 59 61 61 61 60 60 61 60 60 59 59 61 62 62 61 61 59 60 59 59 58 58 58 58 59 61 60 59 60 60 59 59 60 60 61 62 63 63 63 63 63
63 63 63 62 63 63 63 62 58 58 56 61 61 60 59 60 61 58 54 54 54 55 55 57 57 57 57 60 58 57 58 58 59 61 61 60 58 57 57 57 56 56 57 58 58 58 60 61 61 61 61 61 61 61 61 61 61 62 61 58 58 58 58 58 57 57 57 58 58 59 61 60 62 62 61 61 61 61 60 61 61 61 61 61 62
64 63 62 61 62 61 61 60 57 57 56 58 60 59 59 59 60 59 57 55 54 55 55 55 57 55 56 57 59 59 59 61 59 59 59 59 58 56 55 55 55 55 55 56 56 57 59 60 60 61 62 62 63 62 61 62 63 63 62 61 60 58 57 57 57 57 55 56 58 60 58 58 58 58 59 59 58 57 58 58 59 61 61 62 64